Les temps du Jogging 2015

POSDOSSEXENOMCLUBTEMPSVITMOYCATPL.
1606Brunetta Arnaud00:48:1814,90704:02V11
2613Demeulester Guillaume00:49:5614,41904:10SE1
3284Weitkunat Baptiste00:52:0413,82804:20SE2
4395Dandois FabianJAMES00:52:2513,73604:22SE3
5610Spies BenoitRCB00:53:3213,45004:28SE4
6643Verbesselt Kevin00:53:4013,41604:28SE5
7592Ost Vincent00:54:0913,29604:31SE6
8600Schaefer EricTURBO00:54:1813,26004:32SE7
9368Pijcke GautierMYSTERE00:55:2412,99604:37SE8
10675Massart Olivier00:55:3212,96504:38V12
11628Savary YvesCS DYLE00:56:3212,73604:43V21
12348Biscos DavidJAMES00:58:2512,32504:52SE9
13652Defraene ArturoANTILOB00:58:2512,32504:52V13
14483Sans NomANTILOB00:58:3312,29704:53V14
15507Deblander Bruno00:58:4312,26204:54V22
1686Berrewaerts EtienneUSBW00:58:4712,24804:54V31
17601Vanderhaegen SamuelJCPMF00:58:5912,20704:55SE10
18780Delavie Philippe00:59:5512,01705:00V15
19530Guillerm DavidRONVAU01:01:1611,75205:06SE11
20660Vandam JeanANTILOB01:01:4711,65405:09V23
21514Roch Joffrey01:01:5311,63505:09SE12
22270FNemry FrançoiseRIWA01:01:5911,61605:10A11
23677Sosman Eddy01:03:1511,38305:16V24
24549FBoucher JessicaTURBO01:03:4711,28805:19DA1
25586Holoffé DidierGÉANT VERT01:04:0811,22705:21V16
26697Descamps PhilippeJAMES01:04:1511,20605:21V17
27687Stroobants Bruno01:04:1611,20305:21V18
28689Descamps MucJAMES01:04:4611,11705:24
29585Kamp OlivierMAGICOS01:04:5011,10505:24V19
30513Bouvier Arnaud01:04:5811,08305:25SE13
31417Mathelart PierreANTILOB01:05:5510,92305:30V25
32526Netens Yves01:06:0110,90605:30V26
33571De Molder Damien01:06:1110,87905:31SE14
34166Dehoux Michael01:06:1310,87305:31SE15
35517Willame DidierTURBO01:06:2010,85405:32V110
36591Roos Joel01:06:3610,81105:33V111
37551Jaumain Bernard01:07:3810,64605:38V112
38784FCugnon Emmanuelle01:08:1710,54405:41A12
39561Delogere AntoineTURBO01:08:1910,53905:42SE16
40442Callens Yannick01:08:5410,45005:45SE17
41544Adam Benoit01:09:2010,38505:47V27
42663FChabeau VincianeANTILOB01:09:2310,37705:47A21
43470Tielemans PhilippeRUN4VILLERS01:09:2910,36205:47V28
44426Kumps Fabrice01:09:3110,35705:48SE18
45516Tileman Gustave01:09:5410,30005:50V41
46373Dodremont BenoitANTILOB01:10:1310,25405:51V113
47773Lambillotte DaviTRIKV01:10:5110,16205:54V114
48671FDe Wolf Annick01:11:3610,05605:58A22
49567FDewaegenaere Laurence01:12:209,95406:02A13
50695FBrux SophieJAMES01:12:249,94506:02A14
51153Hannewaurt Xavier01:13:159,82906:06SE19
52664Donckers A01:13:169,82706:06SE20
53603Dejonghe Jean-PaulJAMES01:13:179,82506:06V32
54538Charlier Jean-Yves01:13:179,82506:06V115
55479Detry F…01:13:259,80706:07V116
56672Amory Raphael01:13:509,75206:09V29
57504Doutreligne HervéRIWA01:13:529,74706:09V210
58269FDelcroix AnneJAMES01:14:119,70606:11A31
59690Blero DanielJAMES01:14:129,70306:11V117
60611FDe Reuck FannyMYSTERE01:14:539,61506:14A15
61546Lenders Thierry01:15:049,59106:15V211
62612Schaefer Pierre01:15:299,53906:17SE21
63519Florent XavierARCH01:15:359,52606:18SE22
64698Capelle Frédéric01:16:179,43806:21V118
65581Herard Fabrice01:17:029,34706:25V119
6649Poloczek Nicolas01:17:049,34306:25SE23
67782Descamps Xavier01:17:129,32606:26V120
68367FLibeer Madelon01:18:159,20106:31DA2
69629FCollignon Maryse01:18:339,16606:33DA3
70692Buyens JohanBAV01:19:109,09506:36V42
71657Bertrand PatrickRONVAU01:19:189,07906:37V212
72353Degreef FrédéricJCPMF01:19:229,07206:37SE24
73688FCornelis Nathalie01:21:328,83106:48A23
74604Bandin Marc01:21:538,79306:49V213
75383Vandenborre EmileRIWA01:22:158,75406:51V43
76355FGenot PamelaJCPMF SOMBREFFE01:22:178,75006:51A16
77631FGérard Sabine01:22:178,75006:51A24
78559FPerpette ChristineJAMES01:22:248,73806:52A25
79670FCiolacu OleseaJAMES01:22:278,73306:52DA4
80587FHayez CécileJAMES01:22:278,73306:52A17
81128Varvenne Eric01:22:308,72706:53V214
82414Vandam Vincent01:22:598,67606:55V121
83578FLambert BernadetteSPT WAVRE01:23:598,57307:00A32
84682FDecocq FrançoiseJAMES01:25:098,45607:06A26
85550FEugene AnneSPT WAVRE01:25:268,42807:07A27
86570FMathieu CarolineSPT WAVRE01:25:278,42607:07A18
87678FGoblet ChantalSPT WAVRE01:25:278,42607:07A28
88389FVan Eechaute Anne-Sophie01:26:158,34807:11A19
8994FDehaye Anne01:29:348,03907:28A110
90666FDelvaille KatiaJAMES01:29:468,02107:29A29
91679FHoet BernaJAMES01:31:317,86707:38A33
92471FFremy AnneJAMES01:31:327,86607:38A34
93525FLocus DanielleGAG01:35:187,55507:57A210
94651Burny AlainJAMES01:35:217,55107:57
95181FEnglebienne Natalie01:35:357,53307:58A211
96396FHallet Géraldine01:36:227,47108:02DA5
97503FNguyen Ngoc Thanh Jessica01:36:227,47108:02DA6
98626FPuttemans Claire01:36:267,46608:02DA7
9985FStassin AudreySPT WAVRE01:42:237,03208:32DA8
100539FLinder MagaliSPT WAVRE01:42:277,02808:32A111
101560Waucampt ReggieANTILOB01:43:276,96008:37V33

POSDOSSEXENOMCLUBTEMPSVITMOYCATPL.
1951Flament PatriceDOG'S LAND TEAM00:28:0612,81104:41V11
21148Lenoir PhilippeAUCUN00:28:3812,57304:46SE1
3996De Witte FrédéricDOG'S LAND TEAM00:29:2112,26604:54SE2
4916FDruart FannyRIWA00:31:3411,40405:16DA1
5929Lagos ThéoRIWA00:33:1810,81105:33EH1
61030Mathy Stephan00:33:2410,77805:34V21
7979Semail MickaelDOG'S LAND TEAM00:33:2810,75705:35SE3
81178Solbreux GuillaumeDOG'S LAND TEAM00:33:3610,71405:36SE4
91210Debaisieux Emmanuel00:34:1510,51105:43SE5
10931FKortleven Julie00:34:1510,51105:43ED1
11897Thurie Thierry00:34:2910,44005:45SE6
121160Detru NickyGTC00:34:3110,43005:45V12
131163Willems Jean-Christophe00:34:5210,32505:49V13
14854Hublet Pierre00:35:1810,19805:53V22
151215Charlot Baptiste00:35:1910,19305:53EH2
161100Hendrick Olivier00:35:2310,17405:54V14
17954Lenoir Thomas00:35:2310,17405:54SE7
18948Vigny Laurent00:35:5210,03705:59V15
19907Charlot Frédéric00:35:5810,00906:00V16
201036Baccaert Nicolas00:36:019,99506:00SE8
211079Marchal Jean-YvesBOUST00:36:579,74306:10V17
22805Froment Philippe00:37:139,67306:12V18
23862FVanham Margaux00:37:349,58306:16DA2
24828Flament WilliamDOG'S LAND TEAM00:39:179,16406:33EH3
25967Foucart Vincent00:39:279,12506:35SE9
26994Baes Edwin00:39:279,12506:35SE10
27992FFievet Amandine00:42:048,55807:01DA3
28981Van Steenberghe Eliot00:43:018,36907:10EH4
291019Dehantschutter Benoit00:43:028,36607:10EH5
30964Herman Ingrid00:44:238,11107:24SE11
31904FHublet ValentineLES GAZELLES00:45:247,93007:34ED2
321202FBonaventure Stéphanie00:45:377,89207:36A11
331038Van Steenberghe Mathis00:46:457,70107:48EH6
341034Van Steenberghe Vincent00:46:467,69807:48V19
35898FPilloud Céline00:47:257,59207:54DA4
36850Detry Théo00:47:327,57407:55EH7
371245FLaviolette CatherineLES GAZELLES00:47:487,53107:58A21
38875Demmel… PierreGAZELLE00:47:487,53107:58V23
39957FGobym JocelyneGAZELLE00:47:497,52907:58A22
40885FVanden Herreweger Géraldine00:50:277,13608:25ED3
411157FCapelle Véronique00:50:317,12608:25A12
421201FDehantschutter Fanny00:50:317,12608:25ED4
431222FDonayer Fabienne00:51:406,96808:37A23
441088Michiels ChrisVOETWEG 4100:53:516,68508:59V31
45955Sarteel Sylvain00:53:536,68108:59EH8
46868Lenaerts Aymeric00:53:546,67908:59EH9
47993FDenis Sabine00:54:086,65009:01A13
481230Ngongo Jean-ClaudeJCPMF00:54:086,65009:01V32
491047FPoelaert Bénédicte00:56:096,41109:22A14
50823Radelet Eric00:56:536,32909:29V110
511027FClinckart Corinne00:56:546,32709:29A24
521226FGrancitelli Julie00:57:066,30509:31DA5
531097FGrancitelli Virginie00:57:066,30509:31DA6
54855FGustin Marine00:58:166,17809:43DA7
551081FDe Brabant CarineJAMES00:58:436,13109:47A25
561211FDauphin Géraldine00:58:536,11409:49DA8

AdrienLes temps du Jogging 2015